Flag for Israel Weather past 2 weeks in Modi'in-Maccabim-Re'ut, Israel

84 °F

Scattered clouds.

Feels Like: 87 °F
Forecast: 66 / 79 °F
Wind: 9 mph from West

Location: Ben Gurion International Airport

Current Time: Oct 5, 2015 at 12:30:10 PM

Latest Report: Oct 5, 2015 at 11:50 AM

Visibility: N/A

Pressure: 29.95 "Hg

Humidity: 55%

Dew point: 66 °F

Location of Modi'in-Maccabim-Re'utLocation

Historic Weather in Modi'in-Maccabim-Re'ut — Graph


Modi'in-Maccabim-Re'ut temperature yesterday

Maximum temperature yesterday: 86 °F (at 11:50 AM)
Minimum temperature yesterday: 73 °F (at 4:20 AM)
Average temperature yesterday: 81 °F

Past Weeks' High & Low Weather Summary

High99 °F (Sep 20, 1:20 PM)83% (Sep 24, 6:20 AM)30.12 "Hg (Sep 24, 6:20 AM)
Low70 °F (Sep 25, 6:50 AM)18% (Sep 23, 11:50 AM)29.77 "Hg (Sep 20, 2:20 PM)
Average82 °F61%29.94 "Hg
* Reported Sep 20 11:20 AM — Oct 5 11:20 AM, Modi'in-Maccabim-Re'ut, Weather by CustomWeather, © 2015

Note: Actual official high and low records may vary slightly from our data, if they occured in-between our weather recording intervals... More about our weather records


Modi'in-Maccabim-Re'ut weather history for previous 24 hours

Time TempWeatherWind HumidityBarometerVisibility
11:20 AM
Mon, Oct 5
84 °FScattered clouds.5 mph55%29.95 "HgN/A
10:50 AM84 °FScattered clouds.5 mph58%29.98 "HgN/A
10:20 AM81 °FScattered clouds.6 mph62%29.98 "HgN/A
9:50 AM82 °FScattered clouds.7 mph62%29.98 "HgN/A
9:20 AM82 °FScattered clouds.6 mph62%29.98 "HgN/A
8:50 AM81 °FScattered clouds.5 mph66%29.98 "HgN/A
8:20 AM79 °FScattered clouds.5 mph70%29.98 "HgN/A
7:50 AM79 °FScattered clouds.5 mph70%29.98 "HgN/A
6:50 AM77 °FScattered clouds.2 mph74%29.98 "HgN/A
6:20 AM77 °FPassing clouds.3 mph74%29.98 "HgN/A
5:50 AM77 °FPassing clouds.3 mph74%29.98 "HgN/A
5:20 AM77 °FPassing clouds.2 mph74%29.98 "HgN/A
4:50 AM77 °FPassing clouds.2 mph74%29.98 "HgN/A
4:20 AM77 °FPassing clouds.1 mph74%29.98 "HgN/A
3:50 AM77 °FPassing clouds.2 mph74%29.98 "HgN/A
3:20 AM77 °FPassing clouds.2 mph74%29.98 "HgN/A
2:50 AM79 °FPassing clouds.2 mph70%29.98 "HgN/A
2:20 AM77 °FPassing clouds.2 mph74%30.01 "HgN/A
1:50 AM79 °FPassing clouds.3 mph70%30.01 "HgN/A
1:20 AM79 °FPassing clouds.3 mph70%30.01 "HgN/A
12:50 AM79 °FPassing clouds.3 mph70%30.01 "HgN/A
12:20 AM79 °FPassing clouds.5 mph70%30.01 "HgN/A
11:50 PM
Sun, Oct 4
79 °FPassing clouds.5 mph70%30.01 "HgN/A
11:20 PM79 °FPassing clouds.8 mph70%30.01 "HgN/A
10:50 PM81 °FPassing clouds.7 mph66%30.01 "HgN/A
10:20 PM81 °FPassing clouds.5 mph70%30.01 "HgN/A
9:50 PM81 °FPassing clouds.3 mph66%30.04 "HgN/A
9:20 PM81 °FPassing clouds.5 mph66%30.04 "HgN/A
8:50 PM81 °FPassing clouds.8 mph66%30.04 "HgN/A
8:20 PM81 °FPassing clouds.7 mph66%30.04 "HgN/A
7:50 PM81 °FPassing clouds.6 mph66%30.04 "HgN/A
7:20 PM81 °FPassing clouds.9 mph66%30.01 "HgN/A
6:50 PM81 °FPassing clouds.9 mph66%30.01 "HgN/A
6:20 PM81 °FPassing clouds.12 mph66%30.01 "HgN/A
5:50 PM82 °FPassing clouds.10 mph66%30.01 "HgN/A
5:20 PM82 °FPassing clouds.12 mph66%30.01 "HgN/A
4:50 PM84 °FPassing clouds.12 mph62%30.01 "HgN/A
4:20 PM84 °FPassing clouds.10 mph62%30.01 "HgN/A
3:50 PM86 °FScattered clouds.13 mph59%30.01 "HgN/A
3:20 PM86 °FScattered clouds.12 mph59%30.01 "HgN/A
2:50 PM86 °FPassing clouds.13 mph62%30.04 "HgN/A
2:20 PM86 °FPassing clouds.12 mph62%30.04 "HgN/A
1:50 PM86 °FPassing clouds.12 mph62%30.04 "HgN/A
1:20 PM86 °FScattered clouds.12 mph62%30.04 "HgN/A
12:50 PM86 °FScattered clouds.12 mph62%30.07 "HgN/A
Weather by CustomWeather, © 2015

See weather overviewHow to use our weather pages